Weather in Zlín

Czech Republic     49°13′37″N   17°40′08″E
temp.,
°C
wind,
m/s
gust,
m/s
humid.,
%
clouds,
%
prec.,
mm/h
press.,
hPa
HPBL,
m
28 june, tue
tue2823:00+21ese35620 0.0 101681
02:00+20ese2265100 0.0 101728
05:00+18sse1170100 0.1 101811
08:00+19ne128799 1.1 1019111
11:00+23n127317 2.4 1020648
14:00+28w2351100 2.4 10181589
17:00+27nne425825 0.5 1017993
20:00+24nne477232 0.6 1017374
29 june, wed
wed2923:00+19ne269121 0.0 1017156
02:00+18ene2293100 0.0 101653
05:00+18ne229250 0.4 101540
08:00+24e1464100 0.4 1015326
11:00+30sse463646 0.0 10141685
14:00+33s45285 0.0 10122585
17:00+33sse452813 0.0 10112819
20:00+27ssw015362 0.0 101011
30 june, thu
thu3023:00+23e225969 0.0 101216
02:00+20nne11721 0.0 101213
05:00+17ne22860 0.0 101230
08:00+24sw22570 0.0 1013346
11:00+30s24360 0.0 10121168
14:00+34s462591 0.0 10113536
17:00+34s57270 0.0 10103251
20:00+26ne22518 0.0 101020
1 july, fri
fri123:00+19nnw11841 0.0 101215
02:00+18e11854 0.0 101111
05:00+18sse11837 0.6 101213
08:00+22ssw237086 0.6 1013323
11:00+27sw465174 0.0 10131123
14:00+31sw46384 0.0 10122189
17:00+31wsw563612 0.0 10112301
20:00+18wnw51093100 0.8 1016545
2 july, sat
sat223:00+16nw279897 3.6 1020462
02:00+14nnw3697100 3.7 1021379
05:00+14nnw279598 0.0 1022477
08:00+15n378499 0.0 1023533
11:00+16nne477387 0.1 1024655
14:00+17n576286 0.1 1024704
17:00+20nne56530 0.0 1023896
20:00+17nne38710 0.0 1023483